Погода в Новопокровке

Россия / Республика Крым     45°09′58″N   35°15′19″E
темп.,
°C
ветер,
м/с
пор.,
м/с
влажн.,
%
обл.,
%
осадки,
мм/ч
давл.,
гПа
погр.,
м
14 июня, пн
пн1400:00+17ююз348939 0.0 1010101
03:00+17ююв34904 0.0 101075
06:00+18ююв58868 0.0 1009297
09:00+22ююв68605 0.0 1010960
12:00+24ююв785368 0.0 10111185
15:00+23юв465432 0.9 1011660
18:00+23всв4457100 0.0 1010486
21:00+20всв35826 0.0 1010149
15 июня, вт
вт1500:00+19в268766 1.9 1009150
03:00+19ссв1685100 6.2 1008174
06:00+19в3887100 6.2 1008289
09:00+20всв61084100 11.4 1007451
12:00+24юв676176 3.4 10071129
15:00+24ююв78570 3.4 10081111
18:00+23ю68620 0.0 1007620
21:00+17ю61079100 0.0 1009244
16 июня, ср
ср1600:00+18ююз3577100 0.0 1008185
03:00+17ю2489100 1.3 1010135
06:00+17ю2391100 2.2 1010184
09:00+16св0193100 11.8 1011134
12:00+19всв337747 1.2 1011506
15:00+21ссв547524 1.2 1010579
18:00+21ссв44742 0.0 1010486
21:00+19ссз348013 0.0 1010165
17 июня, чт
чт1700:00+18з4685100 0.0 1010170
03:00+18зсз5881100 0.1 1009215
06:00+18зсз5884100 0.0 1011308
09:00+21з5676100 0.0 1011426
12:00+24ссз3363100 0.1 10121011
15:00+24всв2266100 1.7 1012782
18:00+24зюз346212 1.6 1013845
21:00+19ю457867 2.1 101698
18 июня, пт
пт1800:00+19юв33805 0.0 101657
03:00+18в46865 0.0 1016149
06:00+19в611836 0.0 1016441
09:00+23вюв10136925 0.6 10161284
12:00+24юв89685 0.1 10171085
15:00+25ююв66620 0.1 1017997
18:00+24юв45640 0.0 1018598
21:00+21в23780 0.0 1018115